Probability
0 0 0 0 0 0 0 0 0 0 0 0 0 0 0 0 0 0 0 0 0 0 0 0 0 0 0 0 0 0 0 0 0 0 0 0 0 0 0 0 0 0 0 0
0 0 0 0 0 0 0 0 0 0 0 0 0 0 0 0 0 0 0 0 0 0 0 0 0 0 0 0 0 0 0 0 0 0 0 0 0 0 0 0 0 0 0 0
0 0 0 0 0 0 0 0 0 0 0 0 0 0 0 0 0 0 0 0 0 0 0 0 0 0 0 0 0 0 0 0 0 0 0 0 0 0 0 0 0 0 0 0
0 0 0 0 0 0 0 0 0 0 0 0 0 0 0 0 0 0 0 0 0 0 0 0 0 0 0 0 0 0 0 0 0 0 0 0 0 0 0 0 0 0 0 0
0 0 0 0 0 0 0 0 0 0 0 0 0 0 0 0 0 0 0 0 0 0 0 0 0 0 0 0 0 0 0 0 0 0 0 0 0 0 0 0 0 0 0 0
0 0 0 0 0 0 0 0 0 0 0 0 0 0 0 0 0 0 0 0 0 0 0 0 0 0 0 0 0 0 0 0 0 0 0 0 0 0 0 0 0 0 0 0
0 0 0 0 0 0 0 0 0 0 0 0 0 0 0 0 0 0 0 0 0 0 0 0 0 0 0 0 0 0 0 0 0 0 0 0 0 0 0 0 0 0 0 0
0 0 0 0 0 0 0 0 0 0 0 0 0 0 0 0 0 0 0 0 0 0 0 0 0 0 0 0 0 0 0 0 0 0 0 0 0 0 0 0 0 0 0 0
0 0 0 0 0 0 0 0 0 0 0 0 0 0 0 0 0 0 0 0 0 0 0 0 0 0 0 0 0 0 0 0 0 0 0 0 0 0 0 0 0 0 0 0
0 0 0 0 0 0 0 0 0 0 0 0 0 0 0 0 0 0 0 0 0 0 0 0 0 0 0 0 0 0 0 0 0 0 0 0 0 0 0 0 0 0 0 0
0 0 0 0 0 0 0 0 0 0 0 0 0 0 0 0 0 0 0 0 0 0 0 0 0 0 0 0 0 0 0 0 0 0 0 0 0 0 0 0 0 0 0 0
0 0 0 0 0 0 0 0 0 0 0 0 0 0 0 0 0 0 0 0 0 0 0 0 0 0 0 0 0 0 0 0 0 0 0 0 0 0 0 0 0 0 0 0
0 0 0 0 0 0 0 0 0 0 0 0 0 0 0 0 0 0 0 0 0 0 0 0 0 0 0 0 0 0 0 0 0 0 0 0 0 0 0 0 0 0 0 0
0 0 0 0 0 0 0 0 0 0 0 0 0 0 0 0 0 0 0 0 0 0 0 0 0 0 0 0 0 0 0 0 0 0 0 0 0 0 0 0 0 0 0 0
0 0 0 0 0 0 0 0 0 0 0 0 0 0 0 0 0 0 0 0 0 0 0 0 0 0 0 0 0 0 0 0 0 0 0 0 0 0 0 0 0 0 0 0
0 0 0 0 0 0 0 0 0 0 0 0 0 0 0 0 0 0 0 0 0 0 0 0 0 0 0 0 0 0 0 0 0 0 0 0 0 0 0 0 0 0 0 0
0 0 0 0 0 0 0 0 0 0 0 0 0 0 0 0 0 0 0 0 0 0 0 0 0 0 0 0 0 0 0 0 0 0 0 0 0 0 0 0 0 0 0 0
0 0 0 0 0 0 0 0 0 0 0 0 0 0 0 0 0 0 0 0 0 0 0 0 0 0 0 0 0 0 0 0 0 0 0 0 0 0 0 0 0 0 0 0
0 0 0 0 0 0 0 0 0 0 0 0 0 0 0 0 0 0 0 0 0 0 0 0 0 0 0 0 0 0 0 0 0 0 0 0 0 0 0 0 0 0 0 0
0 0 0 0 0 0 0 0 0 0 0 0 0 0 0 0 0 0 0 0 0 0 0 0 0 0 0 0 0 0 0 0 0 0 0 0 0 0 0 0 0 0 0 0
0 0 0 0 0 0 0 0 0 0 0 0 0 0 0 0 0 0 0 0 0 0 0 0 0 0 0 0 0 0 0 0 0 0 0 0 0 0 0 0 0 0 0 0
0 0 0 0 0 0 0 0 0 0 0 0 0 0 0 0 0 0 0 0 0 0 0 0 0 0 0 0 0 0 0 0 0 0 0 0 0 0 0 0 0 0 0 0
0 0 0 0 0 0 0 0 0 0 0 0 0 0 0 0 0 0 0 0 0 0 0 0 0 0 0 0 0 0 0 0 0 0 0 0 0 0 0 0 0 0 0 0
0 0 0 0 0 0 0 0 0 0 0 0 0 0 0 0 0 0 0 0 0 0 0 0 0 0 0 0 0 0 0 0 0 0 0 0 0 0 0 0 0 0 0 0
0 0 0 0 0 0 0 0 0 0 0 0 0 0 0 0 0 0 0 0 0 0 0 0 0 0 0 0 0 0 0 0 0 0 0 0 0 0 0 0 0 0 0 0
0 0 0 0 0 0 0 0 0 0 0 0 0 0 0 0 0 0 0 0 0 0 0 0 0 0 0 0 0 0 0 0 0 0 0 0 0 0 0 0 0 0 0 0
0 0 0 0 0 0 0 0 0 0 0 0 0 0 0 0 0 0 0 0 0 0 0 0 0 0 0 0 0 0 0 0 0 0 0 0 0 0 0 0 0 0 0 0
Wind_Speed
6 5 4 6 8 9 11 11 10 10 10 9 6 5 5 4 4 3 3 3 4 4 3 3 3 3 3 3 3 3 3 4 5 4 5 5 5 6 6 6 6 6 6 7
6 5 5 8 10 12 13 13 13 13 13 6 5 4 5 5 4 4 4 4 4 4 4 4 3 3 3 3 3 3 4 5 5 5 5 5 6 6 6 6 6 7 7 7
6 3 5 10 9 10 9 8 9 13 10 4 5 5 6 5 5 6 5 4 4 4 4 4 4 4 4 3 3 4 4 5 5 5 6 6 6 6 7 6 7 7 8 8
3 3 10 4 1 5 8 7 8 8 7 6 6 6 6 6 6 6 5 4 4 3 4 4 3 3 3 3 4 4 5 5 5 5 6 6 6 7 7 6 7 7 8 8
4 6 9 4 2 3 6 6 6 8 7 5 5 5 4 3 3 4 4 4 4 3 4 3 3 3 3 3 4 4 5 5 5 6 7 7 7 7 7 7 7 8 8 9
4 6 8 3 1 0 3 6 2 4 6 5 4 5 4 2 4 4 3 3 3 2 3 3 3 2 3 4 4 5 5 6 6 6 7 8 8 7 7 7 8 8 8 9
6 7 7 2 1 3 5 3 2 3 5 4 5 6 5 4 4 3 3 3 2 2 3 3 3 2 3 4 5 5 5 5 6 6 7 7 7 7 7 7 7 8 9 9
5 7 6 2 3 4 3 4 4 5 4 5 5 5 5 4 4 3 3 3 3 2 3 3 3 3 4 5 4 4 4 5 6 6 6 6 7 7 7 7 8 8 8 8
5 5 2 2 3 3 3 5 5 5 5 4 5 5 5 4 4 3 3 3 3 2 3 3 3 3 4 5 4 4 4 5 5 6 6 6 6 6 6 6 6 6 6 7
5 6 5 5 4 4 4 5 5 5 5 5 5 5 4 4 3 3 3 3 3 2 3 4 4 4 4 5 4 4 5 5 5 5 5 5 5 5 5 6 6 6 7 7
6 6 5 5 5 6 5 5 5 5 5 5 4 4 4 3 3 3 3 3 2 2 3 4 4 4 4 4 4 4 5 5 5 5 5 5 5 5 6 7 7 8 7 7
6 5 5 6 6 6 6 6 5 5 5 4 4 4 3 3 3 3 3 3 3 3 3 4 4 4 5 4 4 4 4 4 4 4 4 4 5 5 7 9 11 13 12 11
5 5 6 7 7 6 5 6 5 5 4 4 3 3 2 3 3 3 3 3 3 3 4 4 4 5 5 4 4 4 4 4 4 4 4 4 4 5 5 6 8 10 10 11
4 4 5 5 5 5 4 4 4 3 3 3 2 2 1 2 2 3 3 3 3 3 4 4 4 5 5 4 4 4 4 4 4 4 4 4 4 5 5 5 5 5 6 9
5 5 5 5 4 3 3 2 2 3 3 3 2 1 1 2 2 3 3 3 3 3 3 4 4 5 5 4 4 4 4 3 3 4 4 4 4 5 5 5 5 5 5 6
5 4 4 3 3 3 3 2 2 3 3 3 2 2 2 2 2 3 3 2 2 3 4 4 5 5 5 4 4 3 3 5 5 4 4 4 4 4 4 4 4 4 5 5
2 3 3 4 4 4 3 3 3 3 2 2 3 2 2 1 2 3 3 3 3 3 4 4 5 5 5 4 4 3 3 4 6 4 4 4 4 5 4 4 4 5 5 6
4 4 4 3 3 3 3 3 2 2 2 2 2 1 1 1 2 3 4 4 3 4 4 4 5 5 4 4 4 3 3 3 3 3 4 4 4 4 4 5 5 6 5 6
3 3 3 3 2 2 2 2 2 2 2 1 1 2 2 2 2 3 3 3 4 4 5 5 7 5 5 5 5 3 3 3 3 4 4 5 5 4 4 5 5 5 5 5
3 2 2 2 2 2 2 2 2 2 2 1 1 1 2 2 2 3 3 3 3 4 5 6 5 5 5 5 5 3 3 4 4 4 4 4 4 5 5 5 5 5 5 5
3 3 2 2 3 3 2 2 1 2 2 1 1 1 2 3 3 2 3 3 4 5 5 6 4 4 4 4 5 3 3 3 4 4 4 4 4 5 5 5 5 5 5 5
3 2 2 2 2 3 3 2 1 1 2 2 1 1 2 3 3 3 3 3 5 7 5 4 4 5 6 6 3 3 3 4 4 4 4 4 4 5 5 5 5 5 5 5
2 2 2 2 2 2 3 2 2 1 1 2 2 2 2 3 3 3 4 3 4 6 5 4 6 9 8 4 3 3 4 4 4 4 4 4 4 4 5 5 5 5 5 6
2 2 2 2 2 2 2 3 3 2 2 2 2 2 3 3 3 2 3 6 7 7 5 6 9 9 8 3 3 4 4 4 4 5 5 5 4 4 5 5 5 5 5 7
2 2 1 1 2 2 2 3 3 3 3 2 3 3 2 2 3 3 4 4 7 7 5 6 9 9 5 4 4 4 4 4 5 5 5 5 5 5 5 5 5 5 6 6
2 1 2 2 2 2 2 2 2 2 3 3 3 3 3 3 3 3 3 4 5 6 5 4 5 6 4 4 4 5 5 5 5 5 5 5 5 5 5 5 7 6 6 6
2 2 2 2 2 2 2 2 2 3 3 3 4 4 4 3 3 3 4 4 4 4 4 4 4 4 4 4 5 5 5 5 5 5 5 5 5 5 5 6 6 6 6 6
Wind_Direction
273 281 248 247 240 218 218 232 243 253 255 268 281 286 289 281 270 259 258 257 260 264 260 250 249 248 241 239 239 239 241 247 254 259 259 260 260 259 256 254 255 256 257 257
258 257 258 264 253 236 234 239 246 262 267 275 291 291 284 274 260 258 263 265 270 272 264 256 253 253 251 249 249 248 248 253 259 260 260 260 260 260 257 254 254 253 251 253
251 271 274 256 240 227 226 228 234 247 260 284 282 276 273 269 259 257 261 266 270 274 268 264 259 254 251 253 256 253 256 260 261 260 260 260 261 258 257 256 254 253 253 252
254 240 243 256 135 211 224 241 238 252 269 267 270 286 285 268 255 257 261 265 270 273 275 276 268 260 258 255 252 254 257 260 262 262 262 263 261 257 257 256 254 254 254 254
225 243 261 264 236 214 221 253 244 246 263 282 298 290 274 260 263 272 275 278 277 277 279 279 269 259 256 257 257 258 260 262 262 261 261 260 257 257 258 257 255 254 256 254
221 242 254 275 356 270 205 256 246 233 253 280 288 269 286 326 307 302 299 297 295 293 288 279 275 260 253 258 260 261 265 267 266 262 259 258 258 259 261 258 255 257 257 255
232 247 264 329 309 173 218 281 352 275 268 262 259 279 309 310 302 305 307 306 304 294 284 283 281 261 260 264 266 272 274 271 268 264 261 261 260 259 259 258 258 257 258 256
215 236 251 84 149 205 269 334 314 296 284 272 283 296 297 297 299 303 309 309 302 295 294 295 284 262 267 273 280 281 276 272 270 268 265 261 258 259 257 254 254 255 256 258
222 242 332 180 218 264 301 295 297 293 289 282 280 284 288 291 294 296 296 299 300 291 295 296 288 270 270 281 286 284 281 277 275 272 268 261 257 257 256 251 252 254 253 256
255 258 268 266 274 285 290 288 293 290 284 283 279 279 281 282 290 295 297 299 299 293 287 291 294 290 281 284 287 282 279 280 277 274 270 265 261 256 254 252 252 254 254 256
254 274 287 266 261 280 291 294 295 294 288 279 271 272 272 277 284 289 299 305 296 279 282 290 297 298 295 290 283 281 280 278 280 277 275 272 267 263 262 257 255 257 258 258
255 259 263 277 285 284 283 287 288 291 295 292 276 268 276 279 282 288 295 302 297 293 291 295 298 299 299 295 285 281 284 284 284 282 278 275 276 278 271 269 270 262 261 263
270 281 276 281 285 286 283 289 295 290 282 287 288 273 274 285 291 294 294 297 296 295 297 300 302 301 302 300 290 282 282 287 286 282 281 281 280 283 288 286 274 266 265 268
276 289 282 284 289 297 298 307 313 315 307 294 290 286 279 290 294 295 296 302 303 302 303 303 303 303 306 302 294 287 287 289 290 285 285 284 283 284 284 287 292 292 283 278
283 282 277 293 304 311 316 320 326 321 323 326 323 301 286 284 292 299 305 307 312 313 310 311 309 308 312 307 297 292 292 292 294 292 289 289 291 291 287 283 286 293 298 294
298 291 282 286 296 310 320 311 300 297 307 313 314 310 306 296 296 302 308 311 310 313 314 312 308 310 314 308 303 298 293 301 307 299 294 295 296 294 294 294 293 295 297 302
288 292 293 294 293 297 297 290 282 284 294 299 302 307 310 314 315 317 323 325 315 306 305 304 305 311 309 304 303 300 301 306 308 305 302 302 299 299 301 302 304 302 302 305
272 281 279 277 275 282 297 304 297 295 293 297 305 303 297 300 304 313 321 327 327 323 317 314 311 310 309 313 309 301 302 302 304 307 307 306 303 304 308 309 308 306 309 312
301 301 304 308 300 284 284 297 303 306 305 296 292 297 301 302 303 310 318 322 322 321 324 325 322 323 316 314 316 304 305 305 307 307 306 308 312 313 311 310 310 310 310 311
329 328 332 334 340 326 308 310 316 318 314 302 297 308 316 316 315 314 315 311 309 306 308 314 317 313 312 307 313 307 305 304 304 304 306 307 311 313 313 312 312 312 313 312
338 345 350 352 350 344 331 320 318 321 325 317 286 291 301 309 313 310 308 313 322 319 314 317 318 312 311 314 313 305 302 301 302 305 305 308 311 313 314 315 316 316 315 314
334 340 345 352 356 348 344 342 340 337 339 334 323 308 306 309 314 310 295 290 305 316 320 314 314 317 323 325 316 314 310 308 307 307 307 308 309 312 314 316 316 316 315 314
328 335 341 345 343 339 343 348 345 337 329 321 317 312 306 302 304 305 310 315 310 317 321 315 320 324 330 330 321 318 314 312 310 307 306 305 305 306 307 310 310 312 314 315
341 348 345 347 360 1 349 345 342 335 323 309 305 302 299 303 306 299 294 306 318 322 320 320 326 330 333 329 319 313 309 308 306 305 304 303 302 302 303 305 307 311 312 314
346 349 353 359 351 337 332 333 336 336 334 325 323 321 309 298 297 307 309 310 316 322 319 322 328 331 332 320 313 308 305 303 304 305 303 303 304 305 304 305 306 306 308 310
340 331 329 326 320 319 320 324 324 326 328 324 324 327 324 318 308 305 306 309 311 317 319 316 319 322 317 312 308 306 304 306 308 307 304 303 303 303 302 304 305 303 304 306
338 336 332 331 331 322 315 310 307 311 315 312 311 316 319 318 315 315 313 311 314 315 313 313 314 312 310 308 306 305 303 302 301 302 303 301 300 299 300 301 300 301 303 304